Location: Kearney
(40.6990°N, 99.0810°W)
Time: 21:45:45
(UTC-06:00)

Cosmos 2266 Rocket - Pass Details

Date: 18 December 2017
Orbit: 935 x 1007 km, 82.9° (Epoch: 21 January)

Event Time Altitude Azimuth Distance (km) Brightness Sun altitude
Rises 18:34:51 0° 349° (NNW) 3,616 6.9 -15.3°
Reaches altitude 10° 18:37:21 10° 346° (NNW) 2,674 6.3 -15.7°
Maximum altitude 18:43:22 62° 267° (W) 1,071 4.5 -16.8°
Drops below altitude 10° 18:49:26 10° 188° (S) 2,702 6.6 -17.9°
Sets 18:51:58 0° 185° (S) 3,656 7.3 -18.4°
